Location: Alphen aan den Rijn
(52.1277°N, 4.6689°E)
Time: 03:10:36

Envisat - Pass Details

Date: 26 February 2018
Orbit: 764 x 766 km, 98.2° (Epoch: 17 March)

Event Time Altitude Azimuth Distance (km) Brightness Sun altitude
Rises 20:08:33 0° 171° (S) 3,222 6.0 -18.1°
Reaches altitude 10° 20:10:52 10° 173° (S) 2,299 5.3 -18.4°
Maximum altitude 20:15:55 69° 257° (WSW) 821 3.3 -19.2°
Drops below altitude 10° 20:21:01 10° 341° (NNW) 2,316 5.9 -20.0°
Sets 20:23:21 0° 344° (NNW) 3,246 6.6 -20.3°
